Location: Newark
(16.3678°N, 77.8722°E)
Time: 17:31:31
(UTC+00:00)

Tiros 1 - Pass Details

Date: 14 December 2019
Orbit: 630 x 664 km, 48.4° (Epoch: 29 January)

Event Time Altitude Azimuth Distance (km) Brightness Sun altitude
Rises 06:02:27 0° 341° (NNW) 2,912 10.1 49.2°
Reaches altitude 10° 06:05:35 10° 3° (N) 2,001 9.4 49.4°
Maximum altitude 06:08:26 16° 41° (NE) 1,630 9.2 49.5°
Drops below altitude 10° 06:11:17 10° 80° (E) 1,997 9.8 49.7°
Sets 06:14:24 0° 102° (ESE) 2,904 10.7 49.8°
